| time (UTC) | temp C | wind direction | speed KPH | gust KPH | rain 1hr cm | rain 24hr cm | rain mn cm | humidity % | barometer mb |
| 20260507001645 | 23 | 1 | 3.2 | 16.1 | 0.00 | 0.00 | 0.00 | 88 | 1007.8 |
| 20260507001421 | 23 | 20 | 4.8 | 12.9 | 0.00 | 0.00 | 0.00 | 88 | 1007.9 |
| 20260507000644 | 23 | 11 | 3.2 | 11.3 | 0.00 | 0.00 | 0.00 | 88 | 1007.7 |
| 20260507000144 | 23 | 0 | 3.2 | 11.3 | 0.00 | 0.00 | 0.00 | 87 | 1007.6 |
| 20260506235641 | 23 | 10 | 3.2 | 14.5 | 0.00 | 0.00 | 0.00 | 87 | 1007.6 |
| 20260506235134 | 24 | 8 | 3.2 | 14.5 | 0.00 | 0.00 | 0.00 | 87 | 1007.7 |
| 20260506234634 | 24 | 30 | 3.2 | 12.9 | 0.00 | 0.00 | 0.00 | 87 | 1007.6 |
| 20260506234134 | 24 | 353 | 3.2 | 12.9 | 0.00 | 0.00 | 0.00 | 87 | 1007.5 |
| 20260506233635 | 25 | 4 | 3.2 | 14.5 | 0.00 | 0.00 | 0.00 | 87 | 1007.3 |
| 20260506233136 | 25 | 9 | 3.2 | 14.5 | 0.00 | 0.00 | 0.00 | 86 | 1007.3 |
| 20260506232636 | 25 | 359 | 3.2 | 11.3 | 0.00 | 0.00 | 0.00 | 85 | 1007.4 |
| 20260506232129 | 25 | 345 | 4.8 | 11.3 | 0.00 | 0.00 | 0.00 | 85 | 1007.4 |
| 20260506231630 | 25 | 357 | 4.8 | 14.5 | 0.00 | 0.00 | 0.00 | 85 | 1007.4 |
| 20260506231129 | 26 | 3 | 4.8 | 14.5 | 0.00 | 0.00 | 0.00 | 84 | 1007.6 |
| 20260506230628 | 26 | 332 | 4.8 | 16.1 | 0.00 | 0.00 | 0.00 | 84 | 1007.4 |
| 20260506230128 | 26 | 2 | 4.8 | 16.1 | 0.00 | 0.00 | 0.00 | 84 | 1007.3 |
| 20260506225629 | 26 | 14 | 4.8 | 14.5 | 0.00 | 0.00 | 0.00 | 84 | 1007.3 |
| 20260506225120 | 26 | 12 | 4.8 | 14.5 | 0.00 | 0.00 | 0.00 | 85 | 1007.3 |
| 20260506224632 | 26 | 355 | 4.8 | 19.3 | 0.00 | 0.00 | 0.00 | 84 | 1007.2 |
| 20260506224625 | 26 | 4 | 4.8 | 19.3 | 0.00 | 0.00 | 0.00 | 84 | 1007.3 |
| 20260506223617 | 27 | 5 | 4.8 | 16.1 | 0.00 | 0.00 | 0.00 | 85 | 1007.2 |
| 20260506223117 | 27 | 10 | 4.8 | 16.1 | 0.00 | 0.00 | 0.00 | 85 | 1007.2 |
| 20260506222607 | 27 | 358 | 4.8 | 19.3 | 0.00 | 0.00 | 0.00 | 84 | 1006.9 |
| 20260506222108 | 27 | 349 | 6.4 | 19.3 | 0.00 | 0.00 | 0.00 | 84 | 1006.8 |
| 20260506221607 | 27 | 6 | 6.4 | 19.3 | 0.00 | 0.00 | 0.00 | 84 | 1006.7 |
| 20260506221106 | 27 | 355 | 6.4 | 19.3 | 0.00 | 0.00 | 0.00 | 84 | 1006.7 |
| 20260506220846 | 27 | 359 | 6.4 | 20.9 | 0.00 | 0.00 | 0.00 | 84 | 1006.7 |
| 20260506220106 | 27 | 18 | 4.8 | 20.9 | 0.00 | 0.00 | 0.00 | 83 | 1006.6 |
| 20260506215836 | 27 | 22 | 4.8 | 14.5 | 0.00 | 0.00 | 0.00 | 83 | 1006.8 |
| 20260506215104 | 27 | 11 | 4.8 | 17.7 | 0.00 | 0.00 | 0.00 | 83 | 1006.8 |
| 20260506214603 | 28 | 22 | 6.4 | 19.3 | 0.00 | 0.00 | 0.00 | 83 | 1006.8 |
| 20260506214337 | 28 | 339 | 4.8 | 19.3 | 0.00 | 0.00 | 0.00 | 83 | 1006.9 |
| 20260506213836 | 28 | 3 | 4.8 | 16.1 | 0.00 | 0.00 | 0.00 | 83 | 1006.9 |
| 20260506213054 | 28 | 6 | 3.2 | 16.1 | 0.00 | 0.00 | 0.00 | 83 | 1006.9 |
| 20260506212552 | 28 | 4 | 4.8 | 19.3 | 0.00 | 0.00 | 0.00 | 83 | 1006.9 |
| 20260506212050 | 28 | 351 | 4.8 | 19.3 | 0.00 | 0.00 | 0.00 | 84 | 1006.7 |
| 20260506211550 | 28 | 356 | 4.8 | 17.7 | 0.00 | 0.00 | 0.00 | 84 | 1006.6 |
| 20260506211050 | 28 | 29 | 4.8 | 17.7 | 0.00 | 0.00 | 0.00 | 85 | 1006.7 |
| 20260506210551 | 28 | 33 | 4.8 | 16.1 | 0.00 | 0.00 | 0.00 | 84 | 1006.7 |
| 20260506210048 | 28 | 358 | 4.8 | 16.1 | 0.00 | 0.00 | 0.00 | 83 | 1006.8 |
| 20260506205548 | 28 | 14 | 4.8 | 16.1 | 0.00 | 0.00 | 0.00 | 82 | 1006.8 |
| 20260506205049 | 28 | 13 | 3.2 | 14.5 | 0.00 | 0.00 | 0.00 | 82 | 1006.7 |
| 20260506204549 | 29 | 5 | 4.8 | 19.3 | 0.00 | 0.00 | 0.00 | 82 | 1006.8 |
| 20260506204046 | 29 | 4 | 8.0 | 19.3 | 0.00 | 0.00 | 0.00 | 83 | 1006.9 |
| 20260506203547 | 29 | 345 | 6.4 | 22.5 | 0.00 | 0.00 | 0.00 | 85 | 1006.8 |
| 20260506203046 | 29 | 357 | 3.2 | 17.7 | 0.00 | 0.00 | 0.00 | 86 | 1006.8 |
| 20260506202537 | 28 | 13 | 3.2 | 11.3 | 0.00 | 0.00 | 0.00 | 84 | 1006.6 |
| 20260506202307 | 28 | 16 | 3.2 | 11.3 | 0.00 | 0.00 | 0.00 | 85 | 1006.6 |
| 20260506201537 | 28 | 28 | 1.6 | 11.3 | 0.00 | 0.00 | 0.00 | 82 | 1006.7 |
| 20260506201037 | 28 | 26 | 1.6 | 4.8 | 0.00 | 0.00 | 0.00 | 84 | 1006.8 |
| 20260506200810 | 28 | 26 | 1.6 | 9.7 | 0.00 | 0.00 | 0.00 | 85 | 1006.9 |
| 20260506200803 | 28 | 44 | 1.6 | 9.7 | 0.00 | 0.00 | 0.00 | 86 | 1007.1 |
| 20260506195511 | 28 | 14 | 3.2 | 8.0 | 0.00 | 0.00 | 0.00 | 86 | 1007.1 |
| 20260506195010 | 28 | 352 | 3.2 | 9.7 | 0.00 | 0.00 | 0.00 | 86 | 1006.9 |
| 20260506194508 | 28 | 26 | 1.6 | 9.7 | 0.00 | 0.00 | 0.00 | 86 | 1006.9 |
| 20260506194009 | 28 | 80 | 1.6 | 9.7 | 0.00 | 0.00 | 0.00 | 85 | 1006.7 |
| 20260506193507 | 28 | 91 | 1.6 | 9.7 | 0.00 | 0.00 | 0.00 | 85 | 1006.8 |
| 20260506193007 | 28 | 64 | 1.6 | 9.7 | 0.00 | 0.00 | 0.00 | 85 | 1006.7 |
| 20260506192507 | 28 | 7 | 0.0 | 9.7 | 0.00 | 0.00 | 0.00 | 84 | 1006.7 |
| 20260506192001 | 28 | 50 | 0.0 | 4.8 | 0.00 | 0.00 | 0.00 | 85 | 1006.9 |
| 20260506191502 | 28 | 36 | 0.0 | 4.8 | 0.00 | 0.00 | 0.00 | 85 | 1007.1 |
| 20260506191002 | 28 | 75 | 0.0 | 3.2 | 0.00 | 0.00 | 0.00 | 85 | 1007.1 |
| 20260506190449 | 28 | 102 | 0.0 | 4.8 | 0.00 | 0.00 | 0.00 | 85 | 1007.2 |
| 20260506185941 | 28 | 114 | 1.6 | 9.7 | 0.00 | 0.00 | 0.00 | 86 | 1007.2 |
| 20260506185435 | 28 | 39 | 0.0 | 9.7 | 0.00 | 0.00 | 0.00 | 86 | 1007.1 |
| 20260506184918 | 28 | 111 | 1.6 | 8.0 | 0.00 | 0.00 | 0.00 | 84 | 1007.2 |
| 20260506184417 | 27 | 148 | 3.2 | 8.0 | 0.00 | 0.00 | 0.00 | 83 | 1007.2 |
| 20260506183916 | 27 | 122 | 1.6 | 8.0 | 0.00 | 0.00 | 0.00 | 84 | 1007.2 |
| 20260506183417 | 27 | 102 | 0.0 | 4.8 | 0.00 | 0.00 | 0.00 | 86 | 1007.3 |
| 20260506182915 | 27 | 89 | 1.6 | 9.7 | 0.00 | 0.00 | 0.00 | 87 | 1007.4 |
| 20260506182415 | 27 | 80 | 1.6 | 9.7 | 0.00 | 0.00 | 0.00 | 88 | 1007.4 |
| 20260506181916 | 26 | 35 | 1.6 | 9.7 | 0.00 | 0.00 | 0.00 | 88 | 1007.4 |
| 20260506181642 | 26 | 108 | 1.6 | 9.7 | 0.00 | 0.00 | 0.00 | 88 | 1007.2 |
| 20260506181136 | 26 | 351 | 1.6 | 6.4 | 0.00 | 0.00 | 0.00 | 89 | 1007.3 |
| 20260506180406 | 25 | 31 | 3.2 | 9.7 | 0.00 | 0.00 | 0.00 | 90 | 1007.4 |
| 20260506180129 | 25 | 355 | 1.6 | 9.7 | 0.00 | 0.00 | 0.00 | 90 | 1007.3 |
| 20260506175344 | 25 | 39 | 3.2 | 12.9 | 0.00 | 0.00 | 0.00 | 91 | 1007.2 |
| 20260506174841 | 25 | 20 | 3.2 | 14.5 | 0.00 | 0.00 | 0.00 | 92 | 1007.3 |
| 20260506174340 | 25 | 6 | 1.6 | 14.5 | 0.00 | 0.00 | 0.00 | 92 | 1007.4 |
| 20260506173842 | 25 | 31 | 1.6 | 8.0 | 0.00 | 0.00 | 0.00 | 92 | 1007.5 |
| 20260506173341 | 25 | 90 | 1.6 | 8.0 | 0.00 | 0.00 | 0.00 | 92 | 1007.6 |
| 20260506172842 | 25 | 39 | 1.6 | 9.7 | 0.00 | 0.00 | 0.00 | 92 | 1007.7 |
| 20260506172337 | 25 | 33 | 3.2 | 11.3 | 0.00 | 0.00 | 0.00 | 92 | 1007.7 |
| 20260506171837 | 25 | 24 | 1.6 | 11.3 | 0.00 | 0.00 | 0.00 | 92 | 1007.7 |
| 20260506171337 | 25 | 15 | 1.6 | 11.3 | 0.00 | 0.00 | 0.00 | 92 | 1007.6 |
| 20260506170820 | 25 | 41 | 1.6 | 9.7 | 0.00 | 0.00 | 0.00 | 92 | 1007.6 |
| 20260506170556 | 25 | 7 | 1.6 | 8.0 | 0.00 | 0.00 | 0.00 | 92 | 1007.6 |
| 20260506165819 | 25 | 23 | 1.6 | 6.4 | 0.00 | 0.00 | 0.00 | 92 | 1007.5 |
| 20260506165319 | 25 | 41 | 0.0 | 8.0 | 0.00 | 0.00 | 0.00 | 92 | 1007.6 |
| 20260506164819 | 25 | 23 | 1.6 | 8.0 | 0.00 | 0.00 | 0.00 | 93 | 1007.6 |
| 20260506164549 | 25 | 30 | 1.6 | 6.4 | 0.00 | 0.00 | 0.00 | 93 | 1007.6 |
| 20260506164049 | 24 | 32 | 1.6 | 6.4 | 0.00 | 0.00 | 0.00 | 93 | 1007.7 |
| 20260506163317 | 24 | 28 | 1.6 | 6.4 | 0.00 | 0.00 | 0.00 | 93 | 1007.7 |
| 20260506162815 | 24 | 34 | 3.2 | 9.7 | 0.00 | 0.00 | 0.00 | 93 | 1007.7 |
| 20260506162554 | 24 | 17 | 1.6 | 9.7 | 0.00 | 0.00 | 0.00 | 93 | 1007.7 |
| 20260506162042 | 24 | 33 | 1.6 | 8.0 | 0.00 | 0.00 | 0.00 | 93 | 1007.7 |
| 20260506161306 | 24 | 41 | 1.6 | 8.0 | 0.00 | 0.00 | 0.00 | 93 | 1007.6 |
| 20260506160806 | 24 | 40 | 3.2 | 8.0 | 0.00 | 0.00 | 0.00 | 93 | 1007.5 |
| 20260506160308 | 23 | 32 | 1.6 | 8.0 | 0.00 | 0.00 | 0.00 | 93 | 1007.4 |
| 20260506155808 | 23 | 54 | 0.0 | 4.8 | 0.00 | 0.00 | 0.00 | 93 | 1007.4 |
| 20260506155305 | 23 | 29 | 1.6 | 8.0 | 0.00 | 0.00 | 0.00 | 93 | 1007.5 |
| 20260506154759 | 23 | 32 | 1.6 | 8.0 | 0.00 | 0.00 | 0.00 | 92 | 1007.4 |
| 20260506154247 | 23 | 30 | 1.6 | 6.4 | 0.00 | 0.00 | 0.00 | 92 | 1007.3 |
| 20260506154016 | 23 | 35 | 1.6 | 3.2 | 0.00 | 0.00 | 0.00 | 92 | 1007.2 |
| 20260506153211 | 23 | 39 | 0.0 | 3.2 | 0.00 | 0.00 | 0.00 | 92 | 1007.1 |
| 20260506152708 | 23 | 42 | 0.0 | 3.2 | 0.00 | 0.00 | 0.00 | 92 | 1006.9 |
| 20260506152206 | 23 | 43 | 0.0 | 3.2 | 0.00 | 0.00 | 0.00 | 92 | 1006.9 |
| 20260506151935 | 23 | 39 | 0.0 | 3.2 | 0.00 | 0.00 | 0.00 | 92 | 1006.9 |
| 20260506151149 | 23 | 37 | 1.6 | 6.4 | 0.00 | 0.00 | 0.00 | 92 | 1006.8 |
| 20260506150609 | 23 | 32 | 1.6 | 6.4 | 0.00 | 0.00 | 0.00 | 92 | 1006.6 |
| 20260506145557 | 23 | 21 | 0.0 | 3.2 | 0.00 | 0.00 | 0.00 | 92 | 1006.5 |
| 20260506145316 | 23 | 18 | 0.0 | 3.2 | 0.00 | 0.00 | 0.00 | 92 | 1006.4 |
| 20260506144542 | 23 | 18 | 1.6 | 3.2 | 0.00 | 0.00 | 0.00 | 92 | 1006.6 |
| 20260506144308 | 23 | 6 | 1.6 | 6.4 | 0.00 | 0.00 | 0.00 | 92 | 1006.6 |
| 20260506143533 | 23 | 4 | 3.2 | 6.4 | 0.00 | 0.00 | 0.00 | 92 | 1006.6 |
| 20260506143031 | 23 | 16 | 1.6 | 4.8 | 0.00 | 0.00 | 0.00 | 92 | 1006.6 |
| 20260506142520 | 23 | 29 | 1.6 | 4.8 | 0.00 | 0.00 | 0.00 | 92 | 1006.6 |
| 20260506142022 | 23 | 47 | 0.0 | 4.8 | 0.00 | 0.00 | 0.00 | 92 | 1006.5 |
| 20260506141521 | 23 | 49 | 0.0 | 4.8 | 0.00 | 0.00 | 0.00 | 92 | 1006.2 |
| 20260506141013 | 23 | 66 | 0.0 | 1.6 | 0.00 | 0.00 | 0.00 | 92 | 1006.0 |
| 20260506140505 | 23 | 67 | 0.0 | 3.2 | 0.00 | 0.00 | 0.00 | 92 | 1006.1 |
| 20260506140005 | 23 | 70 | 0.0 | 3.2 | 0.00 | 0.00 | 0.00 | 92 | 1005.9 |
| 20260506135503 | 23 | 85 | 0.0 | 3.2 | 0.00 | 0.00 | 0.00 | 92 | 1005.8 |
| 20260506135004 | 23 | 90 | 0.0 | 4.8 | 0.00 | 0.00 | 0.00 | 92 | 1005.6 |
| 20260506134459 | 23 | 104 | 1.6 | 4.8 | 0.00 | 0.00 | 0.00 | 92 | 1005.4 |
| 20260506134156 | 23 | 101 | 0.0 | 4.8 | 0.00 | 0.00 | 0.00 | 92 | 1005.4 |
| 20260506133408 | 23 | 75 | 0.0 | 3.2 | 0.00 | 0.00 | 0.00 | 92 | 1005.3 |
| 20260506132902 | 23 | 59 | 0.0 | 4.8 | 0.00 | 0.00 | 0.00 | 92 | 1005.3 |
| 20260506132555 | 23 | 58 | 0.0 | 4.8 | 0.00 | 0.00 | 0.00 | 92 | 1005.2 |
| 20260506131823 | 23 | 93 | 0.0 | 4.8 | 0.00 | 0.00 | 0.00 | 92 | 1005.3 |
| 20260506131324 | 23 | 39 | 1.6 | 6.4 | 0.00 | 0.00 | 0.00 | 92 | 1005.2 |
| 20260506130810 | 23 | 114 | 1.6 | 6.4 | 0.00 | 0.00 | 0.00 | 91 | 1005.1 |
| 20260506130312 | 23 | 119 | 1.6 | 4.8 | 0.00 | 0.00 | 0.00 | 91 | 1005.0 |
| 20260506125810 | 23 | 116 | 1.6 | 6.4 | 0.00 | 0.00 | 0.00 | 91 | 1004.9 |
| 20260506125309 | 23 | 108 | 1.6 | 6.4 | 0.00 | 0.00 | 0.00 | 91 | 1004.9 |
| 20260506124810 | 23 | 116 | 1.6 | 4.8 | 0.00 | 0.00 | 0.00 | 91 | 1004.9 |
| 20260506124300 | 23 | 113 | 1.6 | 6.4 | 0.00 | 0.00 | 0.00 | 91 | 1004.9 |
| 20260506124036 | 23 | 119 | 3.2 | 6.4 | 0.00 | 0.00 | 0.00 | 91 | 1004.9 |
| 20260506123301 | 23 | 110 | 1.6 | 4.8 | 0.00 | 0.00 | 0.00 | 91 | 1004.9 |
| 20260506122759 | 23 | 101 | 1.6 | 4.8 | 0.00 | 0.00 | 0.00 | 91 | 1004.9 |
| 20260506122300 | 23 | 98 | 1.6 | 4.8 | 0.00 | 0.00 | 0.00 | 91 | 1005.0 |
| 20260506121753 | 23 | 122 | 1.6 | 4.8 | 0.00 | 0.00 | 0.00 | 91 | 1005.1 |
| 20260506121253 | 23 | 122 | 1.6 | 6.4 | 0.00 | 0.00 | 0.00 | 91 | 1005.1 |
| 20260506120749 | 23 | 124 | 1.6 | 6.4 | 0.00 | 0.00 | 0.00 | 91 | 1005.1 |
| 20260506120247 | 23 | 123 | 1.6 | 4.8 | 0.00 | 0.00 | 0.00 | 91 | 1005.0 |
| 20260506115748 | 23 | 123 | 1.6 | 4.8 | 0.00 | 0.00 | 0.00 | 91 | 1005.0 |
| 20260506115240 | 23 | 123 | 1.6 | 4.8 | 0.00 | 0.00 | 0.00 | 91 | 1005.0 |
| 20260506114738 | 23 | 123 | 1.6 | 6.4 | 0.00 | 0.00 | 0.00 | 91 | 1005.0 |
| 20260506114240 | 23 | 137 | 1.6 | 6.4 | 0.00 | 0.00 | 0.00 | 91 | 1004.9 |
| 20260506113736 | 23 | 135 | 1.6 | 4.8 | 0.00 | 0.00 | 0.00 | 91 | 1004.9 |
| 20260506113236 | 23 | 143 | 1.6 | 8.0 | 0.00 | 0.00 | 0.00 | 91 | 1004.9 |
| 20260506113002 | 23 | 137 | 3.2 | 8.0 | 0.00 | 0.00 | 0.00 | 91 | 1004.9 |
| 20260506112219 | 23 | 143 | 3.2 | 8.0 | 0.00 | 0.00 | 0.00 | 91 | 1004.9 |
| 20260506111719 | 23 | 149 | 3.2 | 6.4 | 0.00 | 0.00 | 0.00 | 91 | 1004.9 |
| 20260506111217 | 23 | 131 | 1.6 | 6.4 | 0.00 | 0.00 | 0.00 | 91 | 1004.9 |
| 20260506110712 | 23 | 144 | 1.6 | 6.4 | 0.00 | 0.00 | 0.00 | 91 | 1004.8 |
| 20260506110209 | 23 | 112 | 1.6 | 11.3 | 0.00 | 0.00 | 0.00 | 91 | 1004.9 |
| 20260506105708 | 23 | 132 | 1.6 | 11.3 | 0.00 | 0.00 | 0.00 | 91 | 1004.9 |
| 20260506105208 | 23 | 137 | 1.6 | 6.4 | 0.00 | 0.00 | 0.00 | 91 | 1004.9 |
| 20260506104708 | 23 | 80 | 1.6 | 6.4 | 0.00 | 0.00 | 0.00 | 91 | 1004.8 |
| 20260506104207 | 23 | 133 | 1.6 | 4.8 | 0.00 | 0.00 | 0.00 | 91 | 1004.6 |
| 20260506103700 | 23 | 147 | 1.6 | 6.4 | 0.00 | 0.00 | 0.00 | 91 | 1004.7 |
| 20260506103433 | 23 | 133 | 1.6 | 8.0 | 0.00 | 0.00 | 0.00 | 91 | 1004.6 |
| 20260506102659 | 23 | 135 | 1.6 | 8.0 | 0.00 | 0.00 | 0.00 | 91 | 1004.7 |
| 20260506102159 | 23 | 133 | 1.6 | 4.8 | 0.00 | 0.00 | 0.00 | 91 | 1004.8 |
| 20260506101658 | 23 | 80 | 3.2 | 9.7 | 0.00 | 0.00 | 0.00 | 91 | 1004.9 |
| 20260506101149 | 23 | 158 | 3.2 | 9.7 | 0.00 | 0.00 | 0.00 | 91 | 1004.9 |
| 20260506100647 | 23 | 174 | 3.2 | 8.0 | 0.00 | 0.00 | 0.00 | 91 | 1004.8 |
| 20260506100148 | 23 | 163 | 3.2 | 11.3 | 0.00 | 0.00 | 0.00 | 91 | 1004.7 |
| 20260506095920 | 23 | 170 | 3.2 | 11.3 | 0.00 | 0.00 | 0.00 | 91 | 1004.7 |
| 20260506095145 | 23 | 181 | 3.2 | 9.7 | 0.00 | 0.00 | 0.00 | 90 | 1004.7 |
| 20260506094639 | 23 | 115 | 3.2 | 9.7 | 0.00 | 0.00 | 0.00 | 90 | 1004.6 |
| 20260506094138 | 23 | 156 | 3.2 | 6.4 | 0.00 | 0.00 | 0.00 | 90 | 1004.7 |
| 20260506093638 | 23 | 158 | 3.2 | 9.7 | 0.00 | 0.00 | 0.00 | 90 | 1004.6 |
| 20260506093136 | 23 | 154 | 3.2 | 11.3 | 0.00 | 0.00 | 0.00 | 90 | 1004.6 |
| 20260506092636 | 23 | 151 | 3.2 | 11.3 | 0.00 | 0.00 | 0.00 | 90 | 1004.6 |
| 20260506092137 | 23 | 158 | 3.2 | 11.3 | 0.00 | 0.00 | 0.00 | 90 | 1004.4 |
| 20260506091626 | 23 | 124 | 3.2 | 9.7 | 0.00 | 0.00 | 0.00 | 90 | 1004.3 |
| 20260506091359 | 23 | 158 | 3.2 | 9.7 | 0.00 | 0.00 | 0.00 | 90 | 1004.5 |
| 20260506090625 | 23 | 80 | 3.2 | 8.0 | 0.00 | 0.00 | 0.00 | 90 | 1004.5 |
| 20260506090122 | 23 | 163 | 4.8 | 17.7 | 0.00 | 0.00 | 0.00 | 90 | 1004.4 |
| 20260506085622 | 23 | 169 | 3.2 | 17.7 | 0.00 | 0.00 | 0.00 | 90 | 1004.3 |
| 20260506085123 | 23 | 149 | 3.2 | 14.5 | 0.00 | 0.00 | 0.00 | 90 | 1004.5 |
| 20260506084619 | 23 | 80 | 4.8 | 14.5 | 0.00 | 0.00 | 0.00 | 90 | 1004.4 |
| 20260506084117 | 23 | 143 | 3.2 | 12.9 | 0.00 | 0.00 | 0.00 | 90 | 1004.4 |
| 20260506083603 | 23 | 80 | 3.2 | 9.7 | 0.00 | 0.00 | 0.00 | 90 | 1004.6 |
| 20260506083102 | 23 | 140 | 3.2 | 12.9 | 0.00 | 0.00 | 0.00 | 90 | 1004.6 |
| 20260506082604 | 23 | 134 | 3.2 | 12.9 | 0.00 | 0.00 | 0.00 | 90 | 1004.6 |
| 20260506082102 | 23 | 166 | 3.2 | 12.9 | 0.00 | 0.00 | 0.00 | 90 | 1004.6 |
| 20260506081603 | 23 | 132 | 4.8 | 14.5 | 0.00 | 0.00 | 0.00 | 90 | 1004.7 |
| 20260506081103 | 23 | 134 | 4.8 | 14.5 | 0.00 | 0.00 | 0.00 | 90 | 1004.5 |
| 20260506080602 | 23 | 142 | 3.2 | 14.5 | 0.00 | 0.00 | 0.00 | 90 | 1004.5 |
| 20260506073051 | 23 | 118 | 3.2 | 9.7 | 0.00 | 0.00 | 0.00 | 90 | 1004.9 |
| 20260506072554 | 23 | 80 | 3.2 | 8.0 | 0.00 | 0.00 | 0.00 | 90 | 1005.0 |
| 20260506072550 | 23 | 141 | 3.2 | 9.7 | 0.00 | 0.00 | 0.00 | 90 | 1005.0 |
| 20260506071542 | 23 | 145 | 3.2 | 8.0 | 0.00 | 0.00 | 0.00 | 90 | 1005.2 |
| 20260506071041 | 23 | 120 | 3.2 | 9.7 | 0.00 | 0.00 | 0.00 | 89 | 1005.1 |
| 20260506070539 | 23 | 80 | 3.2 | 9.7 | 0.00 | 0.00 | 0.00 | 89 | 1005.2 |
| 20260506061526 | 24 | 143 | 3.2 | 8.0 | 0.00 | 0.00 | 0.00 | 89 | 1005.5 |
| 20260506061027 | 24 | 147 | 3.2 | 8.0 | 0.00 | 0.00 | 0.00 | 88 | 1005.3 |
| 20260506060801 | 24 | 80 | 3.2 | 6.4 | 0.00 | 0.00 | 0.00 | 88 | 1005.4 |
| 20260506050956 | 24 | 153 | 3.2 | 11.3 | 0.00 | 0.00 | 0.00 | 88 | 1005.4 |
| 20260506050456 | 24 | 139 | 1.6 | 8.0 | 0.00 | 0.00 | 0.00 | 88 | 1005.5 |
| 20260506044953 | 25 | 124 | 3.2 | 6.4 | 0.00 | 0.00 | 0.00 | 87 | 1005.2 |
| 20260506044454 | 25 | 122 | 3.2 | 11.3 | 0.00 | 0.00 | 0.00 | 87 | 1005.1 |
| 20260506043954 | 25 | 80 | 3.2 | 11.3 | 0.00 | 0.00 | 0.00 | 87 | 1005.1 |
| 20260506043454 | 25 | 80 | 3.2 | 8.0 | 0.00 | 0.00 | 0.00 | 87 | 1005.1 |
| 20260506042951 | 25 | 118 | 3.2 | 4.8 | 0.00 | 0.00 | 0.00 | 87 | 1005.1 |
| 20260506042452 | 25 | 128 | 3.2 | 6.4 | 0.00 | 0.00 | 0.00 | 87 | 1005.1 |
| 20260506041952 | 25 | 140 | 3.2 | 6.4 | 0.00 | 0.00 | 0.00 | 86 | 1005.2 |
| 20260506041451 | 25 | 119 | 3.2 | 6.4 | 0.00 | 0.00 | 0.00 | 86 | 1005.2 |
| 20260506040952 | 25 | 123 | 3.2 | 4.8 | 0.00 | 0.00 | 0.00 | 86 | 1005.2 |
| 20260506040452 | 25 | 106 | 1.6 | 6.4 | 0.00 | 0.00 | 0.00 | 86 | 1005.2 |
| 20260506035941 | 25 | 89 | 1.6 | 6.4 | 0.00 | 0.00 | 0.00 | 86 | 1004.9 |
| 20260506035441 | 25 | 108 | 3.2 | 4.8 | 0.00 | 0.00 | 0.00 | 85 | 1004.9 |
| 20260506034942 | 25 | 116 | 3.2 | 4.8 | 0.00 | 0.00 | 0.00 | 85 | 1004.9 |
| 20260506034439 | 25 | 117 | 3.2 | 9.7 | 0.00 | 0.00 | 0.00 | 85 | 1004.7 |
| 20260506033940 | 25 | 131 | 3.2 | 9.7 | 0.00 | 0.00 | 0.00 | 85 | 1004.7 |
| 20260506033430 | 25 | 133 | 3.2 | 6.4 | 0.00 | 0.00 | 0.00 | 85 | 1004.9 |
| 20260506032930 | 26 | 133 | 3.2 | 6.4 | 0.00 | 0.00 | 0.00 | 85 | 1004.8 |
| 20260506032430 | 26 | 116 | 3.2 | 6.4 | 0.00 | 0.00 | 0.00 | 84 | 1004.7 |
| 20260506031927 | 26 | 137 | 3.2 | 8.0 | 0.00 | 0.00 | 0.00 | 84 | 1004.5 |
| 20260506031428 | 26 | 133 | 3.2 | 8.0 | 0.00 | 0.00 | 0.00 | 84 | 1004.5 |
| 20260506030919 | 26 | 80 | 3.2 | 11.3 | 0.00 | 0.00 | 0.00 | 84 | 1004.4 |
| 20260506030420 | 26 | 110 | 3.2 | 8.0 | 0.00 | 0.00 | 0.00 | 84 | 1004.4 |
| 20260506025919 | 26 | 114 | 3.2 | 8.0 | 0.00 | 0.00 | 0.00 | 83 | 1004.2 |
| 20260506025418 | 26 | 131 | 3.2 | 12.9 | 0.00 | 0.00 | 0.00 | 83 | 1004.3 |
| 20260506024919 | 26 | 80 | 3.2 | 12.9 | 0.00 | 0.00 | 0.00 | 83 | 1004.3 |
| 20260506024420 | 26 | 118 | 1.6 | 4.8 | 0.00 | 0.00 | 0.00 | 82 | 1004.1 |
| 20260506023912 | 26 | 107 | 3.2 | 8.0 | 0.00 | 0.00 | 0.00 | 82 | 1003.9 |
| 20260506023412 | 26 | 130 | 3.2 | 8.0 | 0.00 | 0.00 | 0.00 | 82 | 1004.0 |
| 20260506022906 | 26 | 95 | 1.6 | 4.8 | 0.00 | 0.00 | 0.00 | 82 | 1003.9 |
| 20260506022420 | 26 | 112 | 3.2 | 9.7 | 0.00 | 0.00 | 0.00 | 81 | 1003.6 |
| 20260506022415 | 26 | 112 | 1.6 | 6.4 | 0.00 | 0.00 | 0.00 | 81 | 1003.9 |
| 20260506021405 | 27 | 122 | 3.2 | 9.7 | 0.00 | 0.00 | 0.00 | 81 | 1003.7 |
| 20260506020904 | 27 | 120 | 3.2 | 9.7 | 0.00 | 0.00 | 0.00 | 80 | 1003.6 |
| 20260506020641 | 27 | 122 | 1.6 | 6.4 | 0.00 | 0.00 | 0.00 | 80 | 1003.6 |
| 20260506015905 | 27 | 97 | 1.6 | 6.4 | 0.00 | 0.00 | 0.00 | 80 | 1003.6 |
| 20260506015406 | 27 | 118 | 1.6 | 6.4 | 0.00 | 0.00 | 0.00 | 80 | 1003.5 |
| 20260506014902 | 27 | 108 | 1.6 | 6.4 | 0.00 | 0.00 | 0.00 | 81 | 1003.3 |
| 20260506014359 | 27 | 111 | 1.6 | 6.4 | 0.00 | 0.00 | 0.00 | 83 | 1003.3 |
| 20260506013900 | 27 | 120 | 1.6 | 6.4 | 0.00 | 0.00 | 0.00 | 84 | 1003.3 |
| 20260506013358 | 27 | 92 | 1.6 | 4.8 | 0.00 | 0.00 | 0.00 | 85 | 1003.3 |
| 20260506012907 | 28 | 113 | 1.6 | 6.4 | 0.00 | 0.00 | 0.00 | 87 | 1003.2 |
| 20260506012901 | 27 | 97 | 1.6 | 4.8 | 0.00 | 0.00 | 0.00 | 86 | 1003.2 |
| 20260506011858 | 28 | 135 | 0.0 | 6.4 | 0.00 | 0.00 | 0.00 | 87 | 1003.4 |
| 20260506011348 | 28 | 101 | 0.0 | 4.8 | 0.00 | 0.00 | 0.00 | 87 | 1003.5 |
| 20260506011110 | 28 | 63 | 0.0 | 3.2 | 0.00 | 0.00 | 0.00 | 87 | 1003.4 |
| 20260506010605 | 28 | 75 | 1.6 | 4.8 | 0.00 | 0.00 | 0.00 | 86 | 1003.4 |
| 20260506005834 | 28 | 75 | 0.0 | 4.8 | 0.00 | 0.00 | 0.00 | 86 | 1003.3 |
| 20260506005330 | 28 | 43 | 0.0 | 1.6 | 0.00 | 0.00 | 0.00 | 87 | 1003.3 |
| 20260506005326 | 28 | 32 | 0.0 | 3.2 | 0.00 | 0.00 | 0.00 | 86 | 1003.2 |
| 20260506004323 | 28 | 106 | 0.0 | 3.2 | 0.00 | 0.00 | 0.00 | 86 | 1003.2 |
| 20260506003818 | 28 | 106 | 0.0 | 3.2 | 0.00 | 0.00 | 0.00 | 86 | 1003.1 |
| 20260506003313 | 28 | 119 | 0.0 | 3.2 | 0.00 | 0.00 | 0.00 | 86 | 1003.2 |
| 20260506003035 | 28 | 119 | 1.6 | 3.2 | 0.00 | 0.00 | 0.00 | 86 | 1003.2 |
| 20260506002306 | 28 | 119 | 1.6 | 4.8 | 0.00 | 0.00 | 0.00 | 86 | 1003.2 |
| 20260506001759 | 29 | 119 | 1.6 | 6.4 | 0.00 | 0.00 | 0.00 | 86 | 1003.1 |